Wind_Speed
26 28 27 30 29 31 26 25 24 21 20 20 19 23 26 27 22 23 19 17 17 18 17 16 19 18 19 19 18 14 13 11 13 12 12 12 13 12 11 12 12 13 13 13
27 27 30 31 32 28 27 27 28 24 22 22 20 25 31 27 24 22 21 20 19 17 16 15 18 20 20 21 20 16 13 12 12 12 15 15 14 12 12 13 13 12 11 12
26 28 31 31 30 30 31 30 29 30 26 24 24 32 33 31 26 16 15 19 20 20 20 19 18 20 21 22 22 20 15 14 13 14 15 14 16 13 10 11 13 12 10 10
31 30 30 30 29 30 32 36 33 29 28 23 27 37 29 29 25 20 17 19 21 20 20 22 22 21 22 24 23 22 17 15 15 16 15 14 15 17 13 10 12 14 11 10
36 33 30 30 31 31 32 35 34 33 33 30 26 11 27 31 25 23 24 22 20 21 20 22 22 23 27 26 24 23 20 17 17 17 16 14 14 15 16 13 11 11 13 10
39 38 36 33 32 33 33 32 32 29 33 32 28 24 28 28 27 28 25 23 20 20 22 22 26 26 26 28 27 23 22 21 19 18 18 16 15 14 14 13 12 12 12 11
38 39 37 34 32 34 34 33 30 30 33 26 32 36 34 35 31 29 29 27 23 20 19 24 26 27 25 24 25 26 24 24 22 20 20 20 18 15 14 12 10 9 9 10
39 39 41 39 39 36 33 33 26 24 25 26 33 41 42 39 36 32 31 29 25 24 22 23 26 27 29 27 26 27 26 26 25 23 22 22 21 18 15 14 13 11 10 10
33 41 40 40 39 37 37 37 31 23 26 22 32 45 39 41 38 35 33 28 26 26 29 29 27 29 30 30 29 30 31 30 28 26 24 23 24 22 19 16 14 14 12 10
36 39 39 40 41 40 40 39 38 35 26 25 31 33 44 44 41 38 34 32 31 28 25 28 29 24 30 32 32 33 34 34 34 32 28 26 25 24 23 20 18 16 14 11
31 33 36 37 41 44 42 42 40 33 27 25 26 38 39 38 39 38 36 33 32 32 30 32 32 29 25 31 32 33 34 35 36 34 31 29 28 27 26 24 21 20 17 15
26 29 31 37 36 40 41 45 44 42 39 34 29 37 36 37 37 35 32 30 34 35 34 31 30 22 30 29 27 31 33 35 36 36 34 32 31 29 27 27 26 23 21 19
25 28 28 31 34 37 41 43 44 43 41 34 31 37 35 35 34 34 33 32 33 35 36 34 31 30 30 34 30 29 30 33 35 36 36 35 33 31 30 29 29 27 25 23
24 27 28 23 28 35 38 41 44 44 44 33 41 44 42 37 36 36 35 37 38 38 37 37 36 33 32 35 37 34 33 33 33 35 38 37 35 34 34 34 31 29 29 27
30 30 30 31 35 38 37 40 42 45 49 46 41 50 47 42 41 39 39 39 41 43 43 42 40 38 36 36 34 30 33 33 34 35 37 39 38 37 37 36 34 33 31 29
27 33 35 35 34 34 37 39 39 43 44 47 54 48 48 48 46 45 44 42 42 44 45 46 47 45 43 41 39 39 34 36 37 37 35 37 39 42 40 40 39 37 36 34
29 33 32 37 38 38 38 37 38 41 40 45 47 48 47 48 48 47 47 46 46 47 46 46 47 47 48 48 47 45 42 39 40 40 37 40 41 42 45 44 43 41 40 41
27 28 30 36 35 39 43 40 40 40 40 43 43 40 42 44 46 48 49 48 49 50 50 50 50 49 48 49 49 51 50 48 47 46 46 45 46 43 43 45 45 44 44 43
28 29 31 32 33 37 37 36 38 41 42 43 43 43 43 44 43 45 46 47 48 49 51 53 54 53 53 51 52 51 53 56 56 54 53 49 48 48 46 48 45 44 44 45
19 25 30 32 34 35 37 36 38 40 41 41 42 43 43 43 44 49 47 48 48 49 49 51 54 55 56 57 56 55 54 54 54 57 58 57 55 53 50 58 49 45 43 42
14 19 23 28 32 36 35 35 37 38 42 41 43 43 45 46 48 48 46 49 49 50 52 51 53 56 59 59 59 60 60 57 57 56 59 60 58 54 50 38 49 47 46 44
11 11 15 21 27 33 35 36 37 38 38 40 41 43 44 45 46 48 49 49 51 51 53 54 56 56 58 61 63 62 63 63 62 60 59 58 57 57 56 52 48 47 40 49
18 15 15 15 18 22 29 33 36 37 38 40 41 43 44 45 46 47 48 50 51 52 53 54 55 57 60 61 62 66 67 67 66 65 64 63 59 57 59 57 54 53 53 51
23 23 20 18 15 15 16 19 27 34 38 39 39 39 40 40 42 45 48 51 53 55 57 58 58 58 59 60 62 65 67 70 71 70 68 67 66 63 61 63 62 58 55 54
25 26 24 27 23 21 18 18 17 16 19 25 32 35 36 36 37 41 45 47 48 50 54 58 60 62 62 63 64 64 64 69 71 74 74 73 71 70 67 64 64 62 60 60
26 29 32 31 30 29 29 28 25 26 26 27 29 30 32 34 35 35 36 38 42 43 43 42 58 64 66 66 69 70 68 68 69 72 75 77 76 73 72 68 67 64 60 60
Wind_Direction
205 206 205 207 206 205 200 201 204 200 195 170 171 177 195 191 180 177 178 186 186 185 177 183 184 183 181 176 165 169 168 172 162 148 140 130 127 125 128 125 120 116 120 126
204 204 204 206 208 204 202 203 204 200 193 178 184 187 175 186 186 188 192 186 189 192 179 176 189 188 187 184 177 177 177 173 174 158 155 148 140 141 140 134 128 128 138 136
199 205 204 205 207 202 202 202 204 201 191 179 190 193 187 190 190 207 222 195 181 185 182 178 185 195 192 189 189 181 183 174 175 175 172 165 149 142 146 141 135 137 137 139
200 202 203 203 205 204 205 208 205 201 195 198 202 183 194 195 206 214 207 199 188 189 190 190 184 190 197 199 199 188 186 188 183 185 183 173 164 150 152 156 148 145 145 145
204 202 202 202 203 204 205 208 208 203 199 198 208 158 198 193 201 206 203 203 203 196 192 192 196 194 199 199 203 200 188 194 199 193 187 186 181 163 155 160 163 153 151 153
205 203 201 201 204 204 208 211 214 205 203 204 204 188 215 210 203 208 214 222 227 221 214 205 200 204 204 202 201 206 196 198 207 204 191 191 194 186 167 165 166 168 163 158
204 206 205 205 203 206 204 206 212 211 205 203 210 199 210 211 212 216 221 227 228 226 222 220 213 206 208 210 209 208 204 201 210 207 204 193 199 201 192 176 181 181 172 165
207 207 206 204 203 204 205 203 205 214 206 204 209 209 215 212 216 217 217 220 222 221 218 195 215 212 203 204 207 211 212 208 208 210 205 203 201 203 204 194 180 183 193 190
202 212 209 208 208 206 205 203 196 198 201 203 218 218 212 216 215 214 216 217 221 220 220 225 235 221 208 206 202 205 208 213 213 212 208 206 208 204 206 205 198 187 191 189
209 214 212 210 209 208 210 206 206 207 209 196 226 215 221 217 216 215 216 218 221 225 228 235 233 211 215 210 211 209 209 209 211 213 210 209 213 211 207 206 208 205 196 201
208 212 215 211 212 211 210 213 209 208 207 207 226 225 220 218 219 220 220 216 220 221 228 240 230 223 225 220 216 218 216 214 217 218 214 212 215 218 216 209 210 213 208 204
209 210 215 215 215 216 216 217 212 213 216 203 207 238 219 218 217 216 217 217 217 221 223 236 243 211 212 216 227 226 226 225 224 225 223 219 217 219 221 223 217 216 220 215
207 210 216 217 216 215 217 218 219 218 214 216 215 236 224 222 222 219 219 219 216 219 219 223 235 241 245 207 214 225 226 227 229 232 233 230 227 223 222 225 227 222 221 225
220 218 211 207 215 221 215 216 218 219 218 219 223 227 228 226 226 226 223 221 221 222 222 220 226 228 240 253 230 215 226 231 232 230 234 235 234 233 231 227 228 230 228 228
224 228 226 225 221 222 216 216 217 218 221 220 232 227 231 229 229 230 229 226 222 223 225 225 225 228 231 242 254 226 223 231 233 233 228 231 233 235 236 237 235 233 232 234
228 229 232 234 233 232 227 221 219 221 219 224 229 232 229 231 232 232 233 230 230 229 229 229 229 229 230 232 237 246 236 229 235 226 232 230 230 232 232 234 234 236 237 235
229 235 233 237 235 237 238 234 230 226 224 228 230 230 231 233 234 234 234 233 232 233 232 233 233 232 230 231 232 232 237 241 243 237 238 233 230 231 232 232 235 233 236 239
231 231 230 236 235 236 237 236 237 236 233 233 233 233 236 235 236 236 236 236 235 234 235 236 235 235 233 230 231 230 233 234 240 247 248 248 238 235 236 235 234 237 237 238
236 233 233 233 233 238 242 241 240 240 238 238 238 236 235 235 235 235 235 236 236 235 235 237 239 238 238 236 232 232 232 234 236 243 248 248 243 235 238 237 236 237 237 238
237 239 237 234 234 236 234 235 234 237 237 237 238 239 240 239 240 238 238 240 237 236 235 234 237 239 240 239 239 237 235 234 236 237 242 245 249 257 246 238 232 236 235 238
232 235 238 238 237 238 232 233 234 233 234 234 236 236 238 239 243 244 241 243 243 243 242 239 236 237 239 241 241 240 240 237 236 238 240 244 248 248 253 252 226 233 238 236
234 237 237 237 239 240 235 239 236 235 235 235 236 237 239 240 241 243 244 244 245 245 245 245 244 240 238 239 241 243 243 241 239 236 239 242 244 246 248 250 251 243 243 241
245 239 236 237 243 241 242 239 239 239 238 237 238 237 238 241 242 244 246 246 247 247 247 247 246 246 245 242 240 241 243 245 244 242 240 239 241 243 246 248 248 252 256 255
244 239 238 237 239 230 227 235 240 240 241 241 242 243 244 245 247 249 250 250 252 252 252 251 251 250 250 248 244 242 241 242 245 245 245 243 242 241 242 248 249 250 254 254
247 244 240 240 236 230 225 220 224 233 237 241 242 243 246 248 249 252 253 254 256 259 260 257 255 254 253 252 251 247 244 243 242 245 245 246 246 245 245 243 247 250 253 253
247 243 243 244 245 244 238 236 231 230 233 233 236 245 245 247 250 249 250 254 255 259 267 265 259 257 256 254 253 252 249 245 245 244 245 245 245 246 245 244 246 248 249 251
Height
5845 5850 5855 5859 5863 5865 5873 5877 5881 5885 5888 5890 5893 5895 5895 5897 5899 5902 5904 5907 5908 5911 5914 5917 5920 5923 5926 5927 5929 5930 5932 5934 5935 5935 5937 5937 5937 5939 5939 5939 5940 5942 5944 5944
5840 5845 5849 5853 5857 5864 5869 5874 5877 5882 5885 5888 5891 5893 5894 5896 5898 5900 5902 5904 5907 5911 5914 5917 5920 5922 5924 5926 5929 5931 5933 5935 5936 5937 5938 5938 5938 5940 5942 5942 5942 5944 5945 5946
5834 5839 5843 5849 5854 5859 5865 5870 5873 5877 5882 5887 5889 5891 5892 5894 5897 5899 5902 5905 5906 5909 5911 5914 5918 5921 5924 5926 5928 5929 5933 5935 5937 5939 5940 5940 5939 5941 5944 5944 5945 5946 5946 5948
5829 5832 5838 5845 5850 5855 5860 5863 5868 5875 5880 5885 5884 5887 5890 5893 5896 5898 5901 5904 5905 5907 5910 5913 5914 5919 5924 5926 5928 5931 5933 5936 5937 5939 5941 5943 5943 5941 5944 5946 5947 5948 5949 5950
5823 5828 5834 5839 5845 5851 5854 5858 5864 5870 5876 5879 5882 5885 5886 5889 5893 5896 5898 5901 5904 5906 5910 5912 5914 5916 5919 5924 5927 5930 5933 5936 5938 5939 5941 5943 5945 5944 5944 5946 5948 5949 5950 5951
5815 5821 5827 5833 5838 5844 5848 5853 5859 5868 5873 5877 5881 5884 5884 5886 5890 5893 5896 5898 5902 5907 5909 5911 5912 5913 5917 5920 5924 5929 5931 5935 5937 5940 5941 5943 5945 5947 5946 5947 5948 5950 5950 5951
5810 5815 5822 5828 5834 5837 5844 5850 5856 5862 5866 5874 5875 5881 5876 5883 5887 5891 5893 5897 5900 5903 5905 5909 5911 5913 5916 5920 5923 5926 5929 5932 5935 5938 5941 5942 5945 5947 5947 5947 5949 5950 5951 5953
5804 5810 5814 5821 5826 5833 5839 5847 5854 5857 5861 5869 5869 5872 5873 5877 5882 5887 5892 5896 5899 5901 5903 5904 5909 5910 5913 5916 5920 5924 5927 5930 5933 5936 5938 5941 5943 5946 5947 5947 5948 5950 5952 5952
5798 5800 5808 5815 5821 5829 5833 5838 5847 5852 5858 5865 5861 5860 5870 5871 5876 5882 5887 5892 5896 5899 5899 5902 5904 5907 5911 5913 5915 5918 5921 5926 5930 5932 5936 5938 5940 5943 5946 5948 5948 5949 5952 5952
5791 5796 5802 5809 5815 5821 5826 5832 5839 5844 5851 5858 5854 5860 5856 5865 5871 5877 5883 5888 5892 5895 5897 5899 5898 5900 5907 5910 5913 5914 5917 5920 5923 5927 5931 5935 5937 5940 5943 5946 5948 5949 5951 5953
5787 5792 5797 5803 5806 5811 5820 5825 5832 5838 5843 5851 5852 5851 5856 5862 5867 5873 5878 5884 5888 5891 5893 5894 5895 5898 5903 5906 5909 5912 5914 5916 5920 5923 5927 5931 5934 5936 5940 5943 5946 5949 5950 5952
5782 5786 5790 5794 5801 5806 5812 5816 5824 5830 5836 5841 5848 5842 5850 5855 5861 5867 5873 5878 5882 5885 5888 5889 5889 5887 5895 5900 5905 5909 5913 5916 5917 5920 5924 5927 5930 5933 5937 5941 5943 5946 5949 5950
5777 5781 5786 5789 5795 5798 5802 5809 5816 5823 5827 5833 5840 5836 5843 5849 5854 5860 5866 5871 5875 5879 5882 5885 5887 5889 5890 5891 5895 5902 5907 5911 5914 5917 5921 5925 5928 5931 5933 5936 5939 5943 5945 5948
5773 5777 5781 5788 5788 5790 5796 5801 5807 5814 5820 5827 5829 5827 5834 5841 5846 5851 5857 5862 5866 5870 5874 5878 5881 5883 5885 5884 5890 5894 5899 5904 5908 5912 5915 5919 5923 5927 5930 5932 5935 5939 5942 5945
5769 5771 5775 5778 5780 5784 5789 5794 5798 5803 5808 5814 5816 5820 5827 5833 5838 5842 5847 5852 5857 5861 5865 5869 5873 5876 5879 5881 5882 5888 5893 5897 5901 5905 5908 5912 5915 5919 5924 5928 5931 5933 5937 5941
5762 5765 5768 5771 5775 5778 5782 5787 5791 5795 5800 5805 5804 5813 5818 5823 5828 5833 5837 5842 5846 5851 5856 5860 5864 5868 5873 5876 5878 5881 5885 5888 5892 5896 5900 5904 5908 5910 5914 5918 5922 5926 5930 5933
5754 5757 5761 5763 5768 5772 5775 5780 5784 5787 5793 5795 5799 5804 5810 5814 5818 5823 5827 5832 5836 5840 5845 5849 5853 5858 5863 5867 5871 5874 5877 5881 5883 5887 5890 5895 5898 5902 5906 5909 5913 5917 5921 5925
5747 5750 5753 5754 5759 5762 5763 5771 5775 5779 5784 5786 5791 5798 5801 5805 5808 5812 5816 5821 5826 5831 5834 5838 5842 5846 5851 5856 5860 5864 5868 5872 5875 5878 5880 5883 5889 5894 5898 5901 5904 5908 5911 5915
5739 5741 5744 5747 5750 5753 5758 5762 5766 5769 5774 5777 5781 5786 5790 5794 5798 5801 5805 5809 5814 5819 5823 5826 5830 5834 5839 5844 5848 5853 5857 5861 5865 5867 5870 5875 5878 5884 5887 5891 5894 5898 5902 5905
5731 5733 5737 5739 5741 5745 5745 5751 5755 5758 5763 5768 5771 5775 5779 5783 5786 5787 5794 5797 5801 5805 5810 5814 5817 5821 5825 5830 5835 5840 5844 5849 5853 5856 5858 5863 5867 5869 5873 5877 5883 5888 5892 5895
5725 5725 5728 5729 5732 5733 5739 5741 5745 5749 5753 5757 5760 5764 5768 5770 5772 5778 5783 5785 5788 5792 5796 5801 5805 5808 5812 5816 5820 5825 5830 5835 5840 5844 5848 5851 5855 5858 5862 5860 5868 5876 5881 5884
5720 5720 5721 5722 5723 5725 5729 5731 5735 5739 5743 5745 5749 5753 5756 5759 5761 5763 5768 5772 5775 5778 5782 5786 5790 5795 5799 5803 5806 5810 5815 5820 5826 5830 5834 5839 5844 5848 5851 5854 5857 5864 5868 5873
5715 5716 5716 5717 5716 5716 5717 5721 5724 5727 5731 5735 5738 5742 5744 5747 5750 5752 5755 5758 5761 5765 5768 5771 5776 5779 5782 5788 5792 5796 5799 5804 5809 5815 5820 5825 5829 5835 5839 5842 5846 5851 5855 5860
5707 5708 5711 5711 5711 5710 5710 5712 5714 5717 5720 5724 5728 5731 5734 5736 5739 5741 5743 5745 5748 5751 5753 5757 5760 5764 5766 5770 5776 5781 5785 5789 5792 5799 5804 5809 5814 5820 5826 5829 5833 5838 5842 5846
5700 5701 5703 5703 5705 5706 5706 5707 5708 5710 5712 5715 5718 5721 5723 5725 5727 5729 5731 5734 5735 5737 5738 5740 5743 5747 5750 5753 5757 5763 5768 5772 5777 5781 5787 5792 5798 5804 5809 5816 5820 5826 5828 5832
5691 5692 5693 5694 5696 5699 5699 5700 5703 5704 5705 5708 5709 5712 5714 5715 5716 5718 5719 5721 5723 5724 5724 5724 5726 5729 5732 5736 5739 5743 5749 5755 5760 5765 5768 5773 5780 5787 5793 5800 5805 5809 5815 5818